This is the latest recevied weather packets stored in our database for station/object DK4DO-10. If no packets are shown the sender has not sent any weather packets the latest 10 day(s).
| Time | Temp. | Humidity | Pressure | Rain* | Wind** | Luminosity | Snow |
|---|---|---|---|---|---|---|---|
| 1778163191 | 20° C | 29% | 1010.6 hPa | - | - | - | - |
| 1778162591 | 19.44° C | 28% | 1010.7 hPa | - | - | - | - |
| 1778161990 | 19.44° C | 29% | 1010.7 hPa | - | - | - | - |
| 1778161390 | 18.89° C | 31% | 1010.8 hPa | - | - | - | - |
| 1778160790 | 18.33° C | 31% | 1010.7 hPa | - | - | - | - |
| 1778160190 | 17.78° C | 33% | 1010.7 hPa | - | - | - | - |
| 1778159589 | 17.78° C | 33% | 1010.7 hPa | - | - | - | - |
| 1778158989 | 17.22° C | 31% | 1010.6 hPa | - | - | - | - |
| 1778158389 | 17.22° C | 33% | 1010.7 hPa | - | - | - | - |
| 1778157788 | 17.22° C | 33% | 1010.7 hPa | - | - | - | - |
| 1778157188 | 17.22° C | 34% | 1010.7 hPa | - | - | - | - |
| 1778156588 | 16.67° C | 35% | 1010.6 hPa | - | - | - | - |
| 1778155996 | 16.11° C | 36% | 1010.5 hPa | - | - | - | - |
| 1778155398 | 16.11° C | 36% | 1010.6 hPa | - | - | - | - |
| 1778154795 | 16.11° C | 37% | 1010.5 hPa | - | - | - | - |
| 1778154195 | 16.11° C | 36% | 1010.5 hPa | - | - | - | - |
| 1778153595 | 15.56° C | 37% | 1010.5 hPa | - | - | - | - |
| 1778152995 | 16.11° C | 38% | 1010.5 hPa | - | - | - | - |
| 1778152394 | 16.11° C | 37% | 1010.5 hPa | - | - | - | - |
| 1778151794 | 15.56° C | 39% | 1010.4 hPa | - | - | - | - |
| 1778151194 | 15.56° C | 37% | 1010.5 hPa | - | - | - | - |
| 1778150596 | 15° C | 38% | 1010.6 hPa | - | - | - | - |
| 1778149994 | 15° C | 39% | 1010.5 hPa | - | - | - | - |
| 1778149393 | 15° C | 39% | 1010.3 hPa | - | - | - | - |
| 1778148794 | 14.44° C | 40% | 1010.3 hPa | - | - | - | - |
* Rain since midnight (hover to see other rain measurements)
** Current wind speed in m/s (hover to see current wind gust speed)